(160416) = 1997 EC28 = 2004 YP2

Discovered at Catalina on 2004-12-16 by CSS.

Orbit

Orbit type: Main Belt

Note: WebGL enabled browser required.

epoch2023-09-13.0
epoch JD2460200.5
perihelion date2021-02-01.74579
perihelion JD2459247.24579
argument of perihelion (°)41.58040
ascending node (°)3.37872
inclination (°)14.80690
eccentricity0.1646989
perihelion distance (AU)2.1639074
Tisserand w.r.t. Jupiter3.4
ΔV w.r.t. Earth (km/sec)10.3
semimajor axis (AU)2.5905717
mean anomaly (°)225.33007
mean daily motion (°/day)0.23637980
aphelion distance (AU)3.017
period (years)4.17
P-vector [x]0.70890995
P-vector [y]0.56064317
P-vector [z]0.42793214
Q-vector [x]-0.70513816
Q-vector [y]0.55042806
Q-vector [z]0.44700014
absolute magnitude15.51
phase slope0.15
uncertainty0
referenceMPEC 2023-X132
observations used906
oppositions15
arc length (days)9718
first opposition used1995
last opposition used2022
residual rms (arc-secs)0.73
perturbers coarse indicatorM-v
perturbers precise indicator003Ek
first observation date used1995-10-17.0
last observation date used2022-05-26.0
computer nameMPCLINUX
JD of orbit computation2456877.742135
perihelion JD uncertainty (days)1.0009E-04
argument of perihelion uncertainty (°)3.1471E-05
ascending node uncertainty (°)2.2628E-05
inclination uncertainty (°)9.1131E-06
eccentricity uncertainty 8.5096E-08
perihelion distance uncertainty (AU)2.1738E-07
Minimum Orbit Intersection Distances (in AU)
for orbit epoch: 2460200.5, reference: E2023-XD2
Mercury1.84952
Venus1.46058
Earth1.19052
Mars0.76695
Jupiter2.50703
Saturn6.65315
Uranus15.5935
Neptune27.615

Observations

926 total observations over interval: 1995 10 17.14957 – 2022 05 26.183305
These data are available for download (format description).

Date (UT) J2000 RA J2000 Dec Magn Location Ref
1995 10 17.14957 00 01 53.33 +04 05 41.7 17.9 V 691 – Steward Observatory, Kitt Peak-Spacewatch MPS 130772
1995 10 17.17056 00 01 52.09 +04 05 45.0 17.9 V 691 – Steward Observatory, Kitt Peak-Spacewatch MPS 130772
1995 10 17.19138 00 01 50.86 +04 05 48.0 18.2 V 691 – Steward Observatory, Kitt Peak-Spacewatch MPS 130772
1997 03 07.28208 10 44 06.59 +18 30 32.7 19.4 V 691 – Steward Observatory, Kitt Peak-Spacewatch MPC 29265
1997 03 07.30413 10 44 05.12 +18 30 32.8 19.4 V 691 – Steward Observatory, Kitt Peak-Spacewatch MPC 29265
1997 03 07.32662 10 44 03.65 +18 30 33.1 20.1 V 691 – Steward Observatory, Kitt Peak-Spacewatch MPC 29265
1997 03 13.34337 10 37 49.94 +18 28 34.1 19.7 V 691 – Steward Observatory, Kitt Peak-Spacewatch MPC 29265
1997 03 13.36648 10 37 48.54 +18 28 32.8 19.7 V 691 – Steward Observatory, Kitt Peak-Spacewatch MPC 29265
1997 03 13.38870 10 37 47.17 +18 28 31.4 19.6 V 691 – Steward Observatory, Kitt Peak-Spacewatch MPC 29265
1999 09 07.33632 23 00 31.79 -17 10 57.9 18.6 R 699 – Lowell Observatory-LONEOS MPS 130772
1999 09 07.36632 23 00 29.56 -17 10 53.9   699 – Lowell Observatory-LONEOS MPS 130772
1999 09 07.39766 23 00 27.44 -17 10 52.0   699 – Lowell Observatory-LONEOS MPS 130772
1999 09 13.24273 22 53 50.53 -17 02 10.1 19.3   704 – Lincoln Laboratory ETS, New Mexico MPS 130772
1999 09 13.25474 22 53 49.66 -17 02 10.0 19.0   704 – Lincoln Laboratory ETS, New Mexico MPS 130772
1999 09 13.26627 22 53 48.93 -17 02 10.1 19.1   704 – Lincoln Laboratory ETS, New Mexico MPS 130772
1999 09 30.26836 22 37 05.40 -16 02 29.2 18.4   704 – Lincoln Laboratory ETS, New Mexico MPS 130772
1999 09 30.28099 22 37 04.68 -16 02 25.7 19.0   704 – Lincoln Laboratory ETS, New Mexico MPS 130772
1999 09 30.29365 22 37 04.12 -16 02 20.8 19.2   704 – Lincoln Laboratory ETS, New Mexico MPS 130772
1999 09 30.31913 22 37 02.80 -16 02 14.9 19.6   704 – Lincoln Laboratory ETS, New Mexico MPS 130772
1999 10 16.19344 22 28 11.26 -14 23 05.1 19.1   704 – Lincoln Laboratory ETS, New Mexico MPS 130772
1999 10 16.20932 22 28 10.90 -14 22 59.4 19.2   704 – Lincoln Laboratory ETS, New Mexico MPS 130772
1999 10 16.22645 22 28 10.54 -14 22 51.7 19.1   704 – Lincoln Laboratory ETS, New Mexico MPS 130772
1999 10 16.24344 22 28 10.22 -14 22 44.5 19.3   704 – Lincoln Laboratory ETS, New Mexico MPS 130772
2001 02 13.31912 09 48 43.70 +30 40 01.5 18.7   704 – Lincoln Laboratory ETS, New Mexico MPS 130772
2001 02 13.34771 09 48 41.65 +30 39 59.8 18.8   704 – Lincoln Laboratory ETS, New Mexico MPS 130772
2001 02 13.36208 09 48 40.73 +30 39 59.5 19.1   704 – Lincoln Laboratory ETS, New Mexico MPS 130772
2001 02 13.37623 09 48 39.59 +30 39 58.3 19.2   704 – Lincoln Laboratory ETS, New Mexico MPS 130772
2001 02 16.16516 09 45 19.36 +30 39 12.8 18.9 R 699 – Lowell Observatory-LONEOS MPS 130772
2001 02 16.18089 09 45 18.13 +30 39 10.9   699 – Lowell Observatory-LONEOS MPS 130772
2001 02 16.19660 09 45 17.10 +30 39 12.1   699 – Lowell Observatory-LONEOS MPS 130772
2001 02 16.21227 09 45 15.96 +30 39 12.3   699 – Lowell Observatory-LONEOS MPS 130772
2001 02 16.24107 09 45 13.76 +30 39 10.1 18.5   704 – Lincoln Laboratory ETS, New Mexico MPS 130772
2001 02 16.25543 09 45 12.71 +30 39 09.4 19.0   704 – Lincoln Laboratory ETS, New Mexico MPS 130772
2001 02 16.29184 09 45 10.12 +30 39 09.0 19.0   704 – Lincoln Laboratory ETS, New Mexico MPS 130772
2001 02 16.30700 09 45 08.96 +30 39 08.9 18.6   704 – Lincoln Laboratory ETS, New Mexico MPS 130772
2001 03 18.20210 09 18 25.99 +28 46 39.1 19.6 R 699 – Lowell Observatory-LONEOS MPS 130772
2001 03 18.21541 09 18 25.54 +28 46 33.7   699 – Lowell Observatory-LONEOS MPS 130772
2001 03 18.22872 09 18 25.21 +28 46 28.0   699 – Lowell Observatory-LONEOS MPS 130772
2001 03 18.24209 09 18 24.79 +28 46 23.0   699 – Lowell Observatory-LONEOS MPS 130772
2003 07 07.38523 22 16 19.40 -30 15 28.1 19.0   644 – Palomar Mountain/NEAT MPS 130772
2003 07 07.40640 22 16 19.01 -30 15 33.4 19.0   644 – Palomar Mountain/NEAT MPS 130772
2003 07 07.42774 22 16 18.62 -30 15 38.4 19.1   644 – Palomar Mountain/NEAT MPS 130772
2004 12 16.42427 09 00 13.92 +39 57 15.6 19.3 R 703 – Catalina Sky Survey MPS 122872
2004 12 16.43264 09 00 13.68 +39 57 19.3 18.9 R 703 – Catalina Sky Survey MPS 122872
2004 12 16.44120 09 00 13.45 +39 57 21.5 19.0 R 703 – Catalina Sky Survey MPS 122872
2004 12 16.44977 09 00 13.27 +39 57 24.7 18.9 R 703 – Catalina Sky Survey MPS 122872
2004 12 17.33178 08 59 53.34 +40 02 48.5 19.2 R 699 – Lowell Observatory-LONEOS MPS 122872
2004 12 17.34648 08 59 53.01 +40 02 54.1   699 – Lowell Observatory-LONEOS MPS 122872
2004 12 17.41729 08 59 51.03 +40 03 20.1   699 – Lowell Observatory-LONEOS MPS 122872
2004 12 17.43202 08 59 50.60 +40 03 26.8   699 – Lowell Observatory-LONEOS MPS 122872
2005 01 15.41956 08 32 34.97 +42 14 43.4 18.8   704 – Lincoln Laboratory ETS, New Mexico MPS 130772
2005 01 15.43248 08 32 33.85 +42 14 44.1 19.2   704 – Lincoln Laboratory ETS, New Mexico MPS 130772
2005 01 15.44541 08 32 32.77 +42 14 45.3 19.2   704 – Lincoln Laboratory ETS, New Mexico MPS 130772
2005 01 15.45889 08 32 31.68 +42 14 47.1 18.8   704 – Lincoln Laboratory ETS, New Mexico MPS 130772
2005 01 15.47245 08 32 30.55 +42 14 47.7 18.9   704 – Lincoln Laboratory ETS, New Mexico MPS 130772
2005 01 31.28332 08 11 40.35 +42 00 23.7 19.1   704 – Lincoln Laboratory ETS, New Mexico MPS 130772
2005 01 31.29585 08 11 39.51 +42 00 21.2 19.1   704 – Lincoln Laboratory ETS, New Mexico MPS 130772
2005 01 31.33425 08 11 36.53 +42 00 12.7 19.4   704 – Lincoln Laboratory ETS, New Mexico MPS 130772
2007 07 10.61785 20 37 05.73 -41 05 30.9 19.5 V E12 – Siding Spring Survey MPS 211757
2007 07 10.62701 20 37 05.16 -41 05 33.8 19.6 V E12 – Siding Spring Survey MPS 211757
2007 07 10.63598 20 37 04.51 -41 05 36.4 19.2 V E12 – Siding Spring Survey MPS 211757
2007 07 22.58822 20 23 16.47 -41 39 13.6 19.6 V E12 – Siding Spring Survey MPS 212273
2007 07 22.59920 20 23 15.57 -41 39 14.5 19.2 V E12 – Siding Spring Survey MPS 212273
2007 07 22.61022 20 23 14.74 -41 39 16.0 19.3 V E12 – Siding Spring Survey MPS 212274
2007 07 22.62095 20 23 13.92 -41 39 16.7 20.2 V E12 – Siding Spring Survey MPS 212274
2008 10 08.40754 06 24 42.55 +39 49 32.8 19.7   704 – Lincoln Laboratory ETS, New Mexico MPS 260177
2008 10 08.44606 06 24 45.33 +39 49 51.3 20.4   704 – Lincoln Laboratory ETS, New Mexico MPS 260177
2008 10 08.45886 06 24 46.27 +39 49 57.8 20.1   704 – Lincoln Laboratory ETS, New Mexico MPS 260177
2008 11 07.37408 06 48 56.24 +44 11 11.6 19.6   704 – Lincoln Laboratory ETS, New Mexico MPS 265098
2008 11 07.38608 06 48 56.37 +44 11 18.7 19.4   704 – Lincoln Laboratory ETS, New Mexico MPS 265098
2008 11 07.39821 06 48 56.47 +44 11 25.3 19.3   704 – Lincoln Laboratory ETS, New Mexico MPS 265098
2008 11 07.41026 06 48 56.67 +44 11 32.7 19.6   704 – Lincoln Laboratory ETS, New Mexico MPS 265098
2008 11 07.42247 06 48 56.68 +44 11 39.4 19.6   704 – Lincoln Laboratory ETS, New Mexico MPS 265098
2008 11 22.97484 06 47 03.90 +46 31 38.4 18.9 R 106 – Crni Vrh MPS 267268
2008 11 22.98373 06 47 03.66 +46 31 42.5 18.4 R 106 – Crni Vrh MPS 267268
2008 11 22.99258 06 47 03.41 +46 31 46.7 19.0 R 106 – Crni Vrh MPS 267268
2008 11 23.00144 06 47 03.06 +46 31 52.2 18.5 R 106 – Crni Vrh MPS 267268
2008 12 06.29244 06 36 23.13 +48 09 27.5 18.8   704 – Lincoln Laboratory ETS, New Mexico MPS 269043
2008 12 06.30651 06 36 22.07 +48 09 32.4 18.6   704 – Lincoln Laboratory ETS, New Mexico MPS 269043
2008 12 06.32050 06 36 21.19 +48 09 37.7 18.7   704 – Lincoln Laboratory ETS, New Mexico MPS 269043
2008 12 06.33461 06 36 20.14 +48 09 42.6 19.1   704 – Lincoln Laboratory ETS, New Mexico MPS 269043
2008 12 06.34873 06 36 19.15 +48 09 47.6 19.0   704 – Lincoln Laboratory ETS, New Mexico MPS 269043
2008 12 10.31674 06 31 44.41 +48 30 46.4 18.4   704 – Lincoln Laboratory ETS, New Mexico MPS 269164
2008 12 10.32969 06 31 43.45 +48 30 49.6 19.1   704 – Lincoln Laboratory ETS, New Mexico MPS 269164
2008 12 10.34248 06 31 42.44 +48 30 54.1 19.1   704 – Lincoln Laboratory ETS, New Mexico MPS 269164
2008 12 10.35535 06 31 41.47 +48 30 56.8 18.8   704 – Lincoln Laboratory ETS, New Mexico MPS 269164
